Regional Weather Roundup
Issued by NWS

Home | Current Version | Previous Version | Text Only | Print | Product List | Glossary On
Versions: 1 2 3 4 5 6 7 8 9 10 11 12 13 14 15 16 17 18 19 20 21 22 23 24 25 26 27 28 29 30 31 32 33 34 35 36 37 38 39 40 41 42 43 44 45 46 47 48 49 50
000
ASCA42 TJSJ 251210
RWRPR
PUERTO RICO/U.S. VIRGIN ISLANDS HOURLY WEATHER ROUNDUP
NATIONAL WEATHER SERVICE SAN JUAN PR
800 AM AST TUE JUL 25 2017

PRZ001>002-007>008-010-251300-
PUERTO RICO

CITY           SKY/WX    TMP DP  RH WIND       PRES   REMARKS
SAN JUAN LMM   MOSUNNY   84  75  74 E9        30.06R HX  92
AGUADILLA      SUNNY     81  75  83 E9        30.09R
CEIBA          MOSUNNY   84  75  74 NE9       30.08R HX  92
$$

VIZ001>002-251300-
U.S. VIRGIN ISLANDS

CITY           SKY/WX    TMP DP  RH WIND       PRES   REMARKS
CHARLOTTE AMA  SUNNY     84  77  79 E9G18       N/A  HX  94
CHRISTIANSTED  MOSUNNY   84  75  74 E12       30.05S HX  92
$$

HOURLY WEATHER ROUNDUP FOR THE NEWS MEDIA

CITY           SKY/WX    TMP DP  RH WIND       PRES   REMARKS
ORLANDO        SUNNY     79  79 100 CALM      30.14R
NEW YORK       PTSUNNY   65  60  84 NE9       30.04R
NEWARK         CLOUDY    64  60  87 N10       30.04R
CHICAGO        MOSUNNY   66  62  87 CALM      30.18R
HARTFORD       CLOUDY    60  56  86 NE9       30.04R
BOSTON         CLOUDY    57  55  93 N10       30.07R
DALLAS         PTCLDY    79  72  79 S10       30.06R
PHILADELPHIA   CLOUDY    68  64  87 E7        30.03R
LOS ANGELES    CLOUDY    68  65  90 W6        29.94R
WASHINGTON DC  MOSUNNY   70  57  63 NW12      30.07R


USA.gov is the U.S. government's official web portal to all federal, state and local government web resources and services.